www.pogodaiklimat.ru
ПОГОДА в Балаково
Время
(UTC), дата
18 18.11
21 18.11
00 19.11
03 19.11
06 19.11
09 19.11
12 19.11
15 19.11
18 19.11
21 19.11
00 20.11
03 20.11
06 20.11
09 20.11
12 20.11
15 20.11
18 20.11
21 20.11
00 21.11
03 21.11
06 21.11
09 21.11
12 21.11
15 21.11
18 21.11
21 21.11
00 22.11
03 22.11
06 22.11
09 22.11
12 22.11
15 22.11
18 22.11
21 22.11
00 23.11
03 23.11
06 23.11
09 23.11
12 23.11
15 23.11
18 23.11
21 23.11
00 24.11
03 24.11
06 24.11
09 24.11
12 24.11
15 24.11
18 24.11
21 24.11
00 25.11
03 25.11
06 25.11
09 25.11
12 25.11
15 25.11
Ветер
(напр.,м/с)
Видим. Явления Облачность Т
(С)
Тd
(С)
f
(%)
Тe
(С)
Тes
(С)
Комфортность P
(гПа)
Po
(гПа)
Тmin
(С)
Tmax
(С)
R
(мм)
R24
(мм)
S
(см)
штиль 0 20 км 3/0
[Ci fib]
-13.3 -17.4 71 -13 -13 холодно 1045.9 1042.0
штиль 0 20 км ясно -13.8 -16.1 83 -14 -14 очень
холодно
1045.7 1041.8
Ю 2 20 км ясно -12.8 -15.2 82 -17 -17 очень
холодно
1045.4 1041.5
штиль 0 20 км ясно -15.7 -17.8 84 -16 -16 очень
холодно
1044.5 1040.6 -15.9
Ю 1 20 км 3/0
[Ci fib]
-12.0 -15.2 77 -14 -14 очень
холодно
1044.2 1040.3 -16.6
ЮЗ 5 20 км 3/0
[Ci fib]
-4.1 -11.5 56 -11 -10 холодно 1043.1 1039.4
Ю 5 20 км 4/0
[Ci fib]
-3.4 -12.7 49 -10 -9 холодно 1041.3 1037.6
Ю 2 20 км 4/0
[Ci fib]
-7.0 -13.0 62 -11 -11 холодно 1041.2 1037.4 -2.8
Ю 1 20 км 3/0
[Ci fib]
-9.7 -14.7 67 -12 -12 холодно 1040.6 1036.7
Ю 3 20 км ясно -11.0 -16.0 67 -17 -17 очень
холодно
1039.6 1035.8
штиль 0 20 км ясно -15.7 -18.8 77 -16 -16 очень
холодно
1039.6 1035.7
штиль 0 20 км ясно -14.7 -17.7 78 -15 -15 холодно 1038.9 1035.0 -16.0
Ю 1 10 км ясно -11.8 -14.9 78 -14 -13 холодно 1039.3 1035.4
Ю 4 20 км ясно -4.0 -12.7 51 -10 -8 прохладно 1038.0 1034.3
Ю 3 20 км ясно -2.5 -14.1 40 -7 -7 по сезону 1036.6 1032.9
ЮВ 1 20 км ясно -6.6 -14.3 54 -9 -9 по сезону 1037.0 1033.2 -1.9
ЮВ 1 20 км ясно -8.3 -14.1 63 -10 -10 по сезону 1036.9 1033.1
ЮВ 2 20 км ясно -8.8 -12.8 73 -13 -13 прохладно 1037.0 1033.1
штиль 0 20 км ясно -15.3 -17.8 81 -15 -15 холодно 1037.2 1033.3
штиль 0 20 км ясно -14.8 -16.8 85 -15 -15 холодно 1036.9 1033.0 -15.3
штиль 0 20 км 10/0
[Ci sp]
-12.9 -15.4 81 -13 -12 прохладно 1037.8 1033.9 -16.6
В 2 20 км 10/0
[Ci sp]
-6.0 -12.8 59 -10 -8 по сезону 1037.4 1033.7
В 3 20 км 10/0
[Ci sp]
-3.0 -11.9 50 -8 -7 по сезону 1036.7 1032.9
В 1 20 км 4/0
[Ci fib]
-10.2 -13.8 75 -12 -12 прохладно 1037.6 1033.8 -2.6
штиль 0 20 км 10/0
[Ci fib]
-9.4 -12.9 76 -10 -10 по сезону 1037.3 1033.5
штиль 0 20 км 10/0
[Ac trans Ci fib]
-11.8 -14.5 80 -12 -12 прохладно 1037.4 1033.5
С 1 20 км 10/0
[Ac trans Ci fib]
-9.8 -12.8 79 -12 -12 прохладно 1036.4 1032.6
штиль 0 20 км ясно -12.9 -14.9 85 -13 -13 прохладно 1035.8 1031.9 -13.6
В 1 20 км 8/0
[Ac trans Ci fib]
-8.7 -11.2 82 -11 -11 по сезону 1035.4 1031.6 -13.8
В 1 20 км 10/0
[Ac trans Ci fib]
-5.6 -10.3 69 -8 -7 по сезону 1033.9 1030.2
В 2 20 км 10/4 1000 м
[Sc Ac trans Ci fib]
-4.5 -9.9 66 -8 -8 по сезону 1032.1 1028.4
штиль 0 20 км слаб. снег 10/6 1000 м
[Sc Ac und]
-6.1 -10.5 71 -7 -7 по сезону 1031.4 1027.6 -4.3 0.0
штиль 0 20 км {снег} 9/3 1000 м
[Sc Ac trans Ci fib]
-6.6 -10.9 71 -7 -7 по сезону 1030.0 1026.3
штиль 0 20 км 10/0
[Ac und]
-5.1 -9.7 70 -6 -6 по сезону 1029.0 1025.3
ЮВ 1 20 км 10/8 700 м
[Sc Ac und]
-4.1 -10.3 62 -6 -6 по сезону 1028.2 1024.5
Ю 3 20 км 10/6 1000 м
[Sc Ac und]
-4.1 -10.5 61 -9 -9 по сезону 1027.3 1023.6 -6.9 0.0
ЮВ 2 20 км 10/8 1000 м
[Sc Ac trans]
-4.3 -9.8 65 -8 -8 по сезону 1026.7 1023.0
ЮВ 2 10 км слаб. снег 10/10 450 м
[Sc]
-4.1 -6.3 85 -8 -8 по сезону 1024.4 1020.7
Ю 3 4000 м слаб. снег 10/10 420 м
[Sc]
-4.1 -6.0 87 -10 -10 прохладно 1023.0 1019.3
ЮВ 2 20 км {снег, морось} [диам. гололёда 1 мм] 10/10 240 м
[St]
-4.3 -4.6 98 -9 -9 по сезону 1022.0 1018.3 -3.7 0.8
Ю 4 20 км слаб. снег {морось} [диам. гололёда 1 мм] 10/8 240 м
[Frnb As op]
-3.9 -4.0 99 -10 -10 по сезону 1021.0 1017.3
Ю 4 4000 м слаб. снег [диам. гололёда 1 мм] 10/10 240 м
[Frnb Ns]
-2.7 -2.7 100 -9 -9 по сезону 1019.8 1016.1
Ю 4 10 км {снег} [диам. гололёда 1 мм] 10/10 210 м
[St]
-2.1 -2.3 99 -8 -8 по сезону 1019.4 1015.7
Ю 3 4000 м слаб. снег [диам. гололёда 1 мм] 10/10 210 м
[Frnb Ns]
-2.0 -2.2 99 -7 -7 по сезону 1018.5 1014.9 -4.3 2 5
Ю 4 2000 м дымка {снег} 10/10 210 м
[St]
-0.9 -1.1 99 -7 -7 по сезону 1018.8 1015.2
Ю 3 2000 м дымка 10/10 210 м
[St]
0.0 -0.3 98 -5 -5 по сезону 1018.3 1014.7
Ю 2 2000 м дымка 10/10 210 м
[St]
+0.6 +0.2 97 -3 -3 по сезону 1017.4 1013.8
Ю 4 2000 м слаб. снег 10/10 210 м
[St]
+0.5 +0.3 99 -5 -5 по сезону 1016.7 1013.1 +0.6 0.2
ЮВ 3 2000 м снег 10/10 90 м
[Frnb Ns]
-0.2 -0.2 100 -5 -5 по сезону 1015.9 1012.3
ЮВ 3 4000 м в посл. час снег 10/9 90 м
[Frnb As op]
-0.2 -0.2 100 -5 -5 по сезону 1014.8 1011.2
ЮВ 1 500 м туман {снег} [диам. гололёда 0 мм] ?/? -0.3 -0.3 100 -3 -3 тепло 1013.7 1010.1
штиль 0 500 м туман [диам. гололёда 1 мм] ?/? -0.6 -0.6 100 -2 -2 тепло 1013.2 1009.6 -0.6 1 8
штиль 0 2000 м слаб. снег {туман} [диам. гололёда 1 мм] 10/8 210 м
[Frnb As op]
-0.9 -0.9 100 -2 -2 тепло 1013.4 1009.8 -0.9
СВ 1 2000 м дымка {снег} [диам. гололёда 1 мм] 10/8 330 м
[Frnb As trans]
-0.0 -0.0 100 -2 -2 тепло 1013.1 1009.5
СВ 2 2000 м дымка {снег} 10/8 210 м
[Frnb As trans]
-0.4 -0.4 100 -4 -4 по сезону 1013.6 1010.0
штиль 0 10 км слаб. снег 10/8 210 м
[Frnb As op]
-0.8 -0.8 100 -2 -2 тепло 1014.5 1010.9 -0.0 0.0
Местоположение метеостанции Балаково (Саратовская область, Россия): широта 52.02 долгота 47.82 высота над уровнем моря 31 м.
В архиве по умолчанию представлена погода в Балаково за последнюю неделю. Архивные данные за месяц целиком и за предыдущие месяцы, начиная с января 2011 года, Вы можете получить, выбрав интересующий диапазон дат из раскрывающегося списка и нажав кнопку "Найти!".
*Определитесь, кто Вы:
Внимание! Время в таблицах - всемирное. Для получения местного времени необходимо прибавить поправку, которая равна 4 ч.
Смотрите также архив погоды в соседних городах и на ближайших метеорологических станциях:
Партнеры нашего сайта:      
Пояснения к столбцам:
  • Ветер - указаны скорость ветра в м/с - средняя за 10 мин, порывы в срок и между сроками (в фигурных скобках) и направление, откуда дует ветер: С - северный,
  • СВ - северо-восточный, В - восточный, ЮВ - юго-восточный, Ю - южный, ЮЗ - юго-западный, З - западный, СЗ - северо-западный.
  • Видимость - горизонтальная дальность видимости в метрах или километрах. При видимости от 1 до 10 км при отсутствии осадков обычно наблюдается дымка, при ухудшении видимости до 1 км и менее - туман. В сухую погоду видимость может ухудшаться дымом, пылью или мглою.
  • Явления - указаны атмосферные явления, наблюдавшиеся в срок или в последний час перед сроком; фигурными скобками обозначены явления, наблюдавшиеся между сроками (за 1-3 часа до срока); квадратными скобками обозначены град или гололедные отложения с указанием их диаметра в мм.
  • Облачность - указаны через наклонную черту общая и нижняя облачность в баллах и высота нижней границы облаков в метрах; квадратными скобками обозначены формы облаков: Ci - перистые, Cs - перисто-слоистые, Cc - перисто-кучевые, Ac - высококучевые, As - высокослоистые, Sc - слоисто-кучевые, Ns - слоисто-дождевые, Cu - кучевые, Cb - кучево-дождевые. Подробнее классификацию облаков см. в Атласе облаков (PDF).
  • T - Температура воздуха - температура, измеренная на высоте 2 м над землей.
  • Td - Температура точки росы - температура, при понижении до которой содержащийся в воздухе водяной пар достигнет насыщения.
  • f - Относительная влажность воздуха - влажноcть воздуха, измеренная на высоте 2 м над землей.
  • Te - Эффективная температура - температура, которую ощущает одетый по сезону человек в тени. Характеристика душности погоды. При расчете учитывается влияние влажности воздуха и скорости ветра на теплоощущения человека.
  • Tes - Эффективная температура на солнце - температура, которую ощущает человек, с поправкой на солнечный нагрев. Характеристика знойности погоды. Зависит от высоты солнца над горизонтом, облачности и скорости ветра. Ночью, в пасмурную погоду, а также при ветре 12 м/с и более поправка равна нулю.
  • P - Атмосферное давление - приведенное к уровню моря атмосферное давление.
  • Po - Атмосферное давление - измеренное на уровне метеостанции атмосферное давление.
  • Tmin - Минимальная температура - минимум температуры воздуха на высоте 2 м над землей.
  • Tmax - Максимальная температура - максимум температуры воздуха на высоте 2 м над землей.
  • R - Количество осадков - Количество выпавших осадков за период времени, мм. При наведении курсора мыши на число - период времени, за который выпало указанное количество осадков.
  • R24 - Количество осадков - Количество выпавших осадков за 24 часа, мм.
  • S - Снежный покров - Высота снежного покрова, см. При наведении курсора мыши на число - состояние снежного покрова и степень покрытия местности в баллах.